Weather History for K4O4 - February, 2013

Change the Weather History Date:

Tuesday, February 12, 2013

  Actual Average (KDEQ) Record (KDEQ)
Temperature  
Mean Temperature 40 °F 44 °F  
Max Temperature 42 °F 58 °F 84 °F (1962)
Min Temperature 37 °F 31 °F 6 °F (1981)
Degree Days  
Heating Degree Days 26 21  
Month to date heating degree days 263  
Since 1 July heating degree days 2199  
Cooling Degree Days 0 0  
Month to date cooling degree days 0  
Year to date cooling degree days 1  
Moisture  
Dew Point 38 °F    
Average Humidity 88    
Maximum Humidity 93    
Minimum Humidity 76    
Precipitation  
Precipitation 0.33 in 0.14 in 4.23 in (1950)
Month to date precipitation 1.83  
Year to date precipitation 5.15  
Snow  
Snow 0.00 in - - ()
Month to date snowfall  
Since 1 July snowfall  
Snow Depth -    
Sea Level Pressure  
Sea Level Pressure 29.96 in    
Wind  
Wind Speed 8 mph (NE)    
Max Wind Speed 17 mph    
Max Gust Speed 24 mph    
Visibility 7 miles    
Events      
T = Trace of Precipitation, MM = Missing Value Source: NWS Daily Summary

Daily Weather History Graph

Daily Weather History Graph

Search for Another Location

Airport or City:

Trip Planner

Search our weather history database for the weather conditions in past years. The results will help you decide how hot, cold, wet, or windy it might be!

Date:

Astronomy

Feb. 12, 2013 Rise Set
Actual Time 7:06 AM CST 6:01 PM CST
Civil Twilight 6:41 AM CST 6:26 PM CST
Nautical Twilight 6:11 AM CST 6:56 PM CST
Astronomical Twilight 5:42 AM CST 7:25 PM CST
Moon 8:14 AM CST (2/12) 8:51 PM CST (2/12)
Length of Visible Light 11h 45m
Length of Day
10h 54m
Waxing Crescent, 7% of the Moon is Illuminated
Feb 12
Waxing Crescent
Feb 17
First Quarter
Feb 25
Full
Mar 4
Last Quarter
Mar 11
New

Hourly Weather History & Observations

Time (CST) Temp. Windchill Dew Point Humidity Pressure Visibility Wind Dir Wind Speed Gust Speed Precip Events Conditions
12:35 AM 37.4 °F 31.4 °F 32.0 °F 81% 30.10 in 10.0 mi ENE 8.1 mph - N/A   Clear
12:55 AM 39.2 °F 34.2 °F 33.8 °F 81% 30.09 in 10.0 mi ENE 6.9 mph - N/A   Clear
1:15 AM 37.4 °F 32.1 °F 33.8 °F 87% 30.09 in 10.0 mi ENE 6.9 mph - N/A   Clear
1:35 AM 37.4 °F 32.1 °F 33.8 °F 87% 30.07 in 10.0 mi ENE 6.9 mph - N/A   Clear
1:55 AM 37.4 °F 32.1 °F 32.0 °F 81% 30.05 in 10.0 mi NE 6.9 mph - N/A   Clear
2:15 AM 37.4 °F 30.8 °F 33.8 °F 87% 30.02 in 10.0 mi ENE 9.2 mph - N/A   Clear
2:35 AM 37.4 °F 30.8 °F 32.0 °F 81% 29.99 in 10.0 mi ENE 9.2 mph - N/A   Clear
2:55 AM 37.4 °F 33.8 °F 32.0 °F 81% 30.03 in 10.0 mi East 4.6 mph - N/A   Clear
3:15 AM 37.4 °F 32.1 °F 32.0 °F 81% 30.02 in 10.0 mi ENE 6.9 mph - N/A   Clear
3:35 AM 37.4 °F 33.8 °F 33.8 °F 87% 30.03 in 10.0 mi East 4.6 mph - N/A   Clear
3:55 AM 39.2 °F - 33.8 °F 81% 30.08 in 10.0 mi Calm Calm - N/A   Scattered Clouds
4:15 AM 39.2 °F 34.2 °F 33.8 °F 81% 30.03 in 10.0 mi East 6.9 mph - N/A   Clear
4:35 AM 39.2 °F 35.9 °F 33.8 °F 81% 30.03 in 10.0 mi ENE 4.6 mph - N/A   Clear
4:55 AM 39.2 °F 35.9 °F 33.8 °F 81% 30.01 in 10.0 mi NE 4.6 mph - N/A   Clear
5:15 AM 39.2 °F 35.0 °F 33.8 °F 81% 30.01 in 10.0 mi NE 5.8 mph - N/A   Clear
5:35 AM 41.0 °F 36.4 °F 33.8 °F 76% 30.02 in 10.0 mi ENE 6.9 mph - N/A   Mostly Cloudy
5:55 AM 41.0 °F 35.8 °F 33.8 °F 76% 30.02 in 10.0 mi NNE 8.1 mph - N/A   Mostly Cloudy
6:15 AM 41.0 °F 34.7 °F 35.6 °F 81% 29.99 in 10.0 mi NE 10.4 mph - N/A   Overcast
6:35 AM 41.0 °F 34.7 °F 35.6 °F 81% 29.98 in 10.0 mi East 10.4 mph - N/A   Overcast
6:55 AM 41.0 °F 34.3 °F 35.6 °F 81% 29.97 in 10.0 mi ENE 11.5 mph - N/A   Mostly Cloudy
7:15 AM 41.0 °F 35.2 °F 37.4 °F 87% 29.96 in 10.0 mi ENE 9.2 mph - N/A   Overcast
7:35 AM 41.0 °F 35.2 °F 37.4 °F 87% 29.97 in 10.0 mi ENE 9.2 mph - 0.01 in   Overcast
7:55 AM 41.0 °F 35.2 °F 37.4 °F 87% 29.97 in 5.0 mi ENE 9.2 mph - 0.05 in   Overcast
8:15 AM 41.0 °F 35.8 °F 37.4 °F 87% 29.97 in 7.0 mi ENE 8.1 mph - 0.04 in   Overcast
8:35 AM 41.0 °F 34.7 °F 37.4 °F 87% 29.95 in 10.0 mi NE 10.4 mph - 0.05 in   Mostly Cloudy
8:55 AM 41.0 °F 34.3 °F 37.4 °F 87% 29.99 in 7.0 mi East 11.5 mph - 0.08 in   Mostly Cloudy
9:15 AM 42.8 °F 38.0 °F 37.4 °F 81% 30.01 in 10.0 mi ENE 8.1 mph - 0.04 in   Overcast
9:35 AM 42.8 °F 36.6 °F 39.2 °F 87% 29.99 in 10.0 mi ENE 11.5 mph - 0.05 in   Mostly Cloudy
9:55 AM 42.8 °F 35.8 °F 39.2 °F 87% 29.97 in 7.0 mi ENE 13.8 mph 19.6 mph 0.07 in   Overcast
10:15 AM 42.8 °F 35.4 °F 39.2 °F 87% 29.97 in 10.0 mi ENE 15.0 mph 18.4 mph 0.01 in   Mostly Cloudy
10:35 AM 42.8 °F 35.8 °F 39.2 °F 87% 29.96 in 10.0 mi ENE 13.8 mph 19.6 mph 0.01 in   Mostly Cloudy
10:55 AM 42.8 °F 34.8 °F 39.2 °F 87% 29.94 in 7.0 mi East 17.3 mph 23.0 mph 0.01 in   Overcast
11:15 AM 42.8 °F 34.8 °F 39.2 °F 87% 29.92 in 10.0 mi ENE 17.3 mph 24.2 mph N/A   Overcast
11:35 AM 42.8 °F 35.8 °F 39.2 °F 87% 29.94 in 7.0 mi ENE 13.8 mph 23.0 mph 0.01 in   Overcast
11:55 AM 42.8 °F 34.8 °F 39.2 °F 87% 29.92 in 7.0 mi East 17.3 mph 21.9 mph 0.01 in   Overcast
12:15 PM 42.8 °F 35.8 °F 39.2 °F 87% 29.94 in 7.0 mi ENE 13.8 mph - 0.01 in   Overcast
12:35 PM 42.8 °F 38.0 °F 39.2 °F 87% 29.95 in 7.0 mi ENE 8.1 mph - 0.03 in   Overcast
12:55 PM 42.8 °F 37.5 °F 39.2 °F 87% 29.94 in 3.0 mi East 9.2 mph - 0.05 in   Overcast
1:15 PM 42.8 °F 39.3 °F 41.0 °F 93% 29.94 in 3.0 mi ENE 5.8 mph - 0.01 in   Overcast
1:35 PM 42.8 °F 38.0 °F 41.0 °F 93% 29.92 in 3.0 mi East 8.1 mph - 0.02 in   Overcast
1:55 PM 42.8 °F 40.1 °F 41.0 °F 93% 29.92 in 4.0 mi ENE 4.6 mph - 0.03 in   Overcast
2:15 PM 42.8 °F 38.6 °F 41.0 °F 93% 29.92 in 4.0 mi NE 6.9 mph - N/A   Overcast
2:35 PM 42.8 °F 39.3 °F 41.0 °F 93% 29.90 in 4.0 mi NE 5.8 mph - 0.01 in   Overcast
2:55 PM 42.8 °F 38.0 °F 41.0 °F 93% 29.89 in 3.0 mi East 8.1 mph - 0.01 in   Overcast
3:15 PM 42.8 °F 38.0 °F 41.0 °F 93% 29.89 in 4.0 mi East 8.1 mph - N/A   Overcast
3:35 PM 42.8 °F 38.0 °F 41.0 °F 93% 29.89 in 5.0 mi ENE 8.1 mph - N/A   Overcast
3:55 PM 42.8 °F 37.5 °F 39.2 °F 87% 29.89 in 5.0 mi East 9.2 mph - N/A   Overcast
4:15 PM 42.8 °F 39.3 °F 41.0 °F 93% 29.89 in 3.0 mi ENE 5.8 mph - N/A   Overcast
4:35 PM 42.8 °F 37.0 °F 41.0 °F 93% 29.88 in 3.0 mi ENE 10.4 mph - N/A   Overcast
4:55 PM 42.8 °F 37.0 °F 39.2 °F 87% 29.87 in 3.0 mi East 10.4 mph - 0.01 in   Overcast
5:15 PM 41.0 °F 37.1 °F 39.2 °F 93% 29.87 in 3.0 mi ENE 5.8 mph - N/A   Overcast
5:35 PM 41.0 °F 36.4 °F 39.2 °F 93% 29.87 in 5.0 mi NE 6.9 mph - N/A   Overcast
5:55 PM 41.0 °F 35.8 °F 39.2 °F 93% 29.88 in 4.0 mi ENE 8.1 mph - N/A   Overcast
6:15 PM 41.0 °F 38.0 °F 39.2 °F 93% 29.88 in 4.0 mi ENE 4.6 mph - N/A   Overcast
6:35 PM 41.0 °F 36.4 °F 39.2 °F 93% 29.89 in 4.0 mi NE 6.9 mph - N/A   Overcast
6:55 PM 41.0 °F 37.1 °F 39.2 °F 93% 29.91 in 4.0 mi NNE 5.8 mph - N/A   Overcast
7:15 PM 41.0 °F 39.0 °F 39.2 °F 93% 29.91 in 4.0 mi NNE 3.5 mph - N/A   Overcast
7:35 PM 41.0 °F 36.4 °F 39.2 °F 93% 29.92 in 4.0 mi NNE 6.9 mph - N/A   Overcast
7:55 PM 41.0 °F 37.1 °F 39.2 °F 93% 29.92 in 5.0 mi North 5.8 mph - N/A   Overcast
8:15 PM 41.0 °F 36.4 °F 39.2 °F 93% 29.93 in 7.0 mi North 6.9 mph - 0.01 in   Overcast
8:35 PM 41.0 °F 38.0 °F 39.2 °F 93% 29.93 in 5.0 mi North 4.6 mph - 0.01 in   Overcast
8:55 PM 41.0 °F 37.1 °F 39.2 °F 93% 29.93 in 7.0 mi North 5.8 mph - 0.01 in   Overcast
9:15 PM 41.0 °F 37.1 °F 39.2 °F 93% 29.94 in 10.0 mi NNW 5.8 mph - N/A   Overcast
9:35 PM 41.0 °F 37.1 °F 39.2 °F 93% 29.94 in 10.0 mi North 5.8 mph - N/A   Overcast
9:55 PM 41.0 °F 37.1 °F 37.4 °F 87% 29.94 in 5.0 mi North 5.8 mph - N/A   Overcast
10:15 PM 41.0 °F 37.1 °F 37.4 °F 87% 29.94 in 5.0 mi NNW 5.8 mph - N/A   Overcast
10:35 PM 41.0 °F 37.1 °F 39.2 °F 93% 29.94 in 5.0 mi NW 5.8 mph - N/A   Overcast
10:55 PM 41.0 °F 36.4 °F 39.2 °F 93% 29.94 in 10.0 mi NW 6.9 mph - N/A   Mostly Cloudy
11:15 PM 41.0 °F 35.8 °F 37.4 °F 87% 29.94 in 10.0 mi NW 8.1 mph - N/A   Overcast
11:35 PM 41.0 °F 36.4 °F 39.2 °F 93% 29.94 in 10.0 mi NW 6.9 mph - N/A   Overcast
11:55 PM 41.0 °F 35.8 °F 37.4 °F 87% 29.95 in 10.0 mi NW 8.1 mph - N/A   Overcast